Regional Weather Roundup
Issued by NWS Wakefield, VA

Home | Current Version | Previous Version | Graphics & Text | Print | Product List | Glossary On
Versions: 1 2 3 4 5 6 7 8 9 10 11 12 13 14 15 16 17 18 19 20 21 22 23 24 25 26 27 28 29 30 31 32 33 34 35 36 37 38 39 40 41 42 43 44 45 46 47 48 49 50
552
ASUS41 KAKQ 281815
RWRAKQ

REGIONAL WEATHER ROUNDUP
NATIONAL WEATHER SERVICE WAKEFIELD VA
200 PM EDT TUE MAR 28 2017

Note: "fair" indicates few or no clouds below 12,000 feet with no
significant weather and/or obstructions to visibility. * = Denotes
station may not report precipitation (e.g., rain,snow,etc.),
thunder or fog.

VAZ042-051-052>054-056-281900-
NORTHERN VIRGINIA

CITY           SKY/WX    TMP DP  RH WIND       PRES   REMARKS
WASH NATIONAL  CLOUDY    70  59  68 NW12      29.85F
DULLES         CLOUDY    66  55  67 N12       29.85F
FORT BELVOIR   PTSUNNY   68  57  69 VRB6      29.84F
QUANTICO       PTSUNNY   70  59  68 NE8       29.84F
FREDERICKSBRG* CLOUDY    71  59  66 SW9       29.84S
STAFFORD*      CLOUDY    69  56  62 W7        29.88S
WARRENTON      PTSUNNY   72  52  48 NW7       29.84S
CULPEPER*      CLOUDY    71  57  61 CALM      29.85S
MANASSAS*        N/A    N/A N/A N/A NW10      29.85
LEESBURG*      PTSUNNY   68  61  77 NW9       29.86F
WINCHESTER     LGT RAIN  63  54  72 NW6       29.86R
FRONT ROYAL*   CLOUDY    64  59  82 CALM      29.85S
LURAY*         LGT RAIN  63  59  88 CALM      29.86R
$$

VAZ048-049-060>072-079>083-281900-
CENTRAL AND SOUTH CENTRAL VIRGINIA

CITY           SKY/WX    TMP DP  RH WIND       PRES   REMARKS
RICHMOND       CLOUDY    72  58  61 W10       29.86F
CHESTERFIELD*  MOCLDY    72  48  43 SW10      29.88F
PETERSBURG*    CLOUDY    68  61  78 S5        29.88F
HANOVER        CLOUDY    72  55  55 W8        29.87S
TAPPAHANNOCK*  CLOUDY    71  53  53 SW7       29.86F
QUINTON*       MOCLDY    69  60  72 MISG      29.86F
CHARLOTTSVILLE CLOUDY    72  57  59 W12       29.85F
GORDONSVILLE*  MOCLDY    71  59  67 SW10      29.84F
ORANGE*        CLOUDY    68  55  64 SW8       29.87S
LOUISA*        MOSUNNY   75  61  60 W9        29.84F
BUMPASS*       FAIR      70  56  61 SW10      29.85F
FARMVILLE*     CLOUDY    70  60  70 CALM      29.86F
CREWE*         NOT AVBL
FORT PICKETT*  MOCLDY    70  56  60 SW7G20    29.88F
CHASE CITY*    MOCLDY    71  57  60 SW3       29.88F
CLARKSVILLE*   FAIR      73  57  56 W7        29.88F
SOUTH HILL*    CLOUDY    71  58  64 SW9       29.93F
LAWRENCEVILLE* CLOUDY    70  57  63 SW7       29.88F
EMPORIA*       PTSUNNY   73  55  53 SW10      29.89F
$$

VAZ088>098-281900-
SOUTHEAST VIRGINIA

CITY           SKY/WX    TMP DP  RH WIND       PRES   REMARKS
NORFOLK        CLOUDY    73  58  59 SW16      29.87F
VIRGINIA BEACH CLOUDY    70  59  68 SW14      29.88F
NORFOLK NAVAL  NOT AVBL
WEST POINT*    PTSUNNY   72  57  59 SW9       29.88S
SALUDA*        CLOUDY    71  61  70 SW9       29.86F
NEWPORT NEWS   CLOUDY    73  59  61 SW10G23   29.88F
LANGLEY AFB    CLOUDY    70  61  73 SW13      29.87F
FORT EUSTIS    PTSUNNY   72  60  65 S8        29.85F
WILLIAMSBURG*  CLOUDY    73  61  64 CALM      29.88F
HR EXEC AP*    MOCLDY    73  59  60 SW15G25   29.86F
FRANKLIN*      CLOUDY    73  58  58 SW14      29.89F
US460-WAKEFLD  PTSUNNY   71  59  65 SW7       29.88F
$$

VAZ020-022-025-037-045-281900-
WEST CENTRAL AND SOUTHWEST VIRGINIA

CITY           SKY/WX    TMP DP  RH WIND       PRES   REMARKS
STAUNTON*      MOSUNNY   68  52  57 W5        29.88F
WAYNESBORO*    MOCLDY    67  54  63 W9        29.87F
HOT SPRINGS VA PTSUNNY   57  46  67 NW14G24   29.94F
LYNCHBURG      PTSUNNY   66  55  67 SW10      29.89F THUNDER
DANVILLE       MOSUNNY   73  57  57 W8        29.89F
SOUTH BOSTON*  CLOUDY    71  56  59 SW7       29.88F
MARTINSVILLE   PTSUNNY   72  54  53 W10G17    29.92F
ROANOKE        PTSUNNY   69  50  50 NW12G22   29.91F
BLACKSBURG     PTSUNNY   65  54  67 NW9       29.97S
DUBLIN*        MOSUNNY   67  53  61 W13       29.95F
MARION*        CLOUDY    61  53  75 NW7       30.00S
HILLSVILLE*    PTSUNNY   59  53  80 W12G17    29.96S
RICHLANDS*     CLOUDY    57  52  81 W7        30.00S
WISE*          CLOUDY    57  50  77 NW10      30.02S
ABINGDON*      CLOUDY    61  55  80 N10G17    29.99S
$$

MDZ021>025-VAZ099-100-281900-
SOUTHERN MARYLAND AND THE DELMARVA PENINSULA

CITY           SKY/WX    TMP DP  RH WIND       PRES   REMARKS
PATUXENT RIVER CLOUDY    68  60  75 SW7       29.85S
BAY BRIDGE APT CLOUDY    66  59  77 S7        29.83F
LEONARDTOWN    CLOUDY    66  57  72 SW8       29.86F
DOVER          CLOUDY    63  63 100 E7        29.82F
GEORGETOWN     LGT RAIN  66  59  78 SW14      29.86S
EASTON         CLOUDY    68  59  73 SW8       29.87F
CAMBRIDGE      CLOUDY    66  59  77 S9G16     29.85F
SALISBURY      CLOUDY    65  59  81 SW12      29.86R
OCEAN CITY     CLOUDY    56  51  84 S7        29.87S
WALLOPS ISLAND CLOUDY    61  56  83 S9        29.88F
ACCOMACK*      CLOUDY    69  58  68 SW15G23   29.88F
$$

NCZ012>017-030>032-281900-
NORTH CENTRAL AND EASTERN NORTH CAROLINA

CITY           SKY/WX    TMP DP  RH WIND       PRES   REMARKS
ROANOKE RAPIDS MOCLDY    70  61  73 SW10      29.90F
RALEIGH        PTSUNNY   72  59  63 SW8       29.91F
ELIZABETH CITY CLOUDY    68  61  78 SW10      29.91F
AHOSKIE*         N/A     67  62  85 SW3       29.90F
EDENTON*       LGT RAIN  66  61  83 SW8       29.92F
CURRITUCK*     CLOUDY    68  60  76 SW12      29.91F
KILL DEVIL HLS NOT AVBL
MANTEO         CLOUDY    70  58  65 W13       29.92F
CAPE HATTERAS  CLOUDY    71  61  70 SW8       29.95F HAZE
TARBORO*       NOT AVBL
GOLDSBORO      PTSUNNY   70  70 100 SW5       29.90F
WASHINGTON     CLOUDY    65  61  88 SW6       29.93F
GREENVILLE     LGT RAIN  68  63  83 SW10      29.93F
NEW BERN       CLOUDY    68  64  87 NW7       29.94S
WILMINGTON     MOSUNNY   80  61  52 S12       29.91F
$$

VAZ048-281900-
ELSEWHERE

CITY           SKY/WX    TMP DP  RH WIND       PRES   REMARKS
HARRISBURG PA  CLOUDY    52  51  97 NW10      29.84R
BALTIMORE      CLOUDY    65  59  81 NW14      29.83S
ANNAPOLIS      CLOUDY    57  55  93 E8        29.82F
ANDREWS AFB    CLOUDY    64  58  79 W8        29.84S
PHILADELPHIA   CLOUDY    53  51  93 NE12      29.84F
GREENSBORO     MOSUNNY   73  57  57 W12G17    29.90F
ROCKY MOUNT    CLOUDY    70  63  78 SW7       29.91F
$$

VAZ100-281900-
MARINE

STATION/POSITION TIME  TEMP    WIND        PRES    WAVE   SWELL
                       AIR SEA DIR/SP/G            HT/PER HT/PER
                 (UTC) (F)     (DEG/KT/KT) (MB)    (FT/S) (FT/S)
CAPE MAY NJ      1742   61 45  100/  5/  6 1010.4S
LEWES DE         1742   67 45  260/  7/ 10 1010.4F
OCEAN-CITY-INLET 1742   49 45  210/  9/ 11 1011.9S
WACHAPREAGUE VA  1742   64 59  210/  9/ 11 1011.4F
THOMAS POINT MD  1800   55 47  170/ 12/ 13   N/A
GOOSES REEF MD   1750   52     170/ 10/ 12 1011.0
COVE POINT MD    1742   59     190/  7/  8 1011.3F
SOLOMONS ISLAND  1742   62 48  230/  8/  9   N/A
BISHOPS HEAD MD  1742   58 55  180/ 10/ 10 1011.5F
PINEY POINT MD   1748          260/  4/  7   N/A
POTOMAC MD       1750   58     240/  6/  8 1010.2
CAMBRIDGE MD     1742   63 47  180/  5/ 10 1010.0F
LEWISETTA VA     1742   67 54  240/  7/ 11 1010.7F
RAPPAHANNOCK LGT 1748          180/ 11/ 13 1012.3F
STINGRAY PT      1750   62     260/ 10/ 10 1012.2
YORK RVR RNG VA  1742   63     240/ 15/ 17 1010.9F
YORKTOWN VA      1748   67 51  230/ 11/ 15 1011.1F
JAMESTOWN VA     1750   67     240/  6/  8   N/A
DOMINION TERM VA 1748   64     240/  8/ 10 1011.9F
KIPTOPEKE VA     1748      50  240/  6/  8   N/A
CHES BAY BRIDGE  1748   65 51  220/ 13/ 14 1011.6F
CAPE HENRY VA    1748   70     200/ 12/ 15   N/A
WILLOUBY STN VA  1748   61     270/ 10/ 11 1012.7F
S CRANEY ISL VA  1748   69     200/  9/ 12 1011.6F
CAPE CHARLES BUO 1751      49                N/A     3/10   2/11
OFFSHORE WE BUOY 1751      51                N/A     3/10   2/11
DUCK PIER NC     1748   66 47  240/  8/ 11 1012.5F
OREGON INLET NC  1742   64 60  200/ 12/ 13 1013.4F
HATTERAS NC      1748   69 62  230/  5/  8 1014.1F
CAPE LOOKOUT NC  1700   67     230/  9/ 11 1014.6F
$$




USA.gov is the U.S. government's official web portal to all federal, state and local government web resources and services.